Location: Kuffner-Sternwarte
(48.2130°N, 16.2960°E)
Time: 17:15:48
(UTC+02:00)

COROT - Pass Details

Date: 12 August 2018
Orbit: 599 x 890 km, 90.0° (Epoch: 14 August)

Event Time Altitude Azimuth Distance (km) Brightness Sun altitude
Rises 03:16:24 0° 135° (SE) 3,243 9.1 -19.8°
Reaches altitude 10° 03:19:23 10° 118° (ESE) 2,264 8.5 -19.6°
Maximum altitude 03:22:51 19° 74° (ENE) 1,664 8.4 -19.2°
Drops below altitude 10° 03:26:10 10° 30° (NNE) 2,146 9.6 -18.9°
Sets 03:28:53 0° 13° (NNE) 3,016 10.3 -18.6°
